Regional Weather Roundup
Issued by NWS

Home | Current Version | Previous Version | Graphics & Text | Print | Product List | Glossary On
Versions: 1 2 3 4 5 6 7 8 9 10 11 12 13 14 15 16 17 18 19 20 21 22 23 24 25 26 27 28 29 30 31 32 33 34 35 36 37 38 39 40 41 42 43 44 45 46 47 48 49 50
000
ASUS43 KLMK 221110
RWRKY
KENTUCKY REGIONAL WEATHER ROUNDUP
NATIONAL WEATHER SERVICE LOUISVILLE KY
700 AM EDT WED MAR 22 2017

NOTE "FAIR" INDICATES FEW OR NO CLOUDS BELOW 12,000 FEET
WITH NO SIGNIFICANT WEATHER AND/OR OBSTRUCTIONS TO VISIBILITY.

KYZ001>023-026-027-061>063-070>075-221200-
WESTERN AND SOUTH CENTRAL KENTUCKY

CITY           SKY/WX    TMP DP  RH WIND       PRES   REMARKS
PADUCAH        CLOUDY    44  34  67 NE12      30.29R
HENDERSON      CLOUDY    36  21  55 NE15G25   30.34R WCI  26
OWENSBORO      PTCLDY    39  22  50 NE10      30.35R WCI  32
HOPKINSVILLE   MOCLDY    45  30  54 NE14      30.27R
BOWLING GREEN  PTCLDY    44  23  43 NE12      30.30R
GLASGOW        CLEAR     40  22  49 NE9       30.29R WCI  34
$$

KYZ024-025-028>034-038-045-046-053-221200-
NORTH CENTRAL KENTUCKY

CITY           SKY/WX    TMP DP  RH WIND       PRES   REMARKS
LOUISVILLE/SDF PTCLDY    37  19  48 NE14      30.35R WCI  28
LOUISVILLE/LOU CLEAR     37  20  50 NE14G22   30.36R WCI  28
FORT KNOX      PTCLDY    37  20  51 NE13G21   30.31R WCI  28
$$

KYZ035>037-039>044-047>052-055>060-089>105-221200-
NORTHEAST KENTUCKY

CITY           SKY/WX    TMP DP  RH WIND       PRES   REMARKS
LEXINGTON      PTCLDY    32  18  56 NE16G25   30.32R WCI  21
COVINGTON      CLEAR     30  16  56 N15       30.35R WCI  19
FRANKFORT      CLEAR     35  17  47 N12       30.33R WCI  27
$$

KYZ054-064>069-076>088-106>120-221200-
SOUTHEAST KENTUCKY

CITY           SKY/WX    TMP DP  RH WIND       PRES   REMARKS
JACKSON        PTCLDY    34  24  67 VRB5      30.26R WCI  30
LONDON         PTCLDY    37  23  56 N12       30.26R WCI  29
SOMERSET       PTCLDY    36  25  64 N9        30.29R WCI  29
MIDDLESBORO    PTCLDY    44  33  65 N8        30.21R
MONTICELLO     PTSUNNY   39  25  57 N23G30    30.29R WCI  28
$$





USA.gov is the U.S. government's official web portal to all federal, state and local government web resources and services.